NORTHERN NASSAU  -  Areal Flood Advisory Areal Flood Advisory     Special Weather Statement Special Weather Statement        NORTHERN QUEENS  -  Areal Flood Advisory Areal Flood Advisory        SOUTHERN NASSAU  -  Areal Flood Advisory Areal Flood Advisory     Special Weather Statement Special Weather Statement        SOUTHERN QUEENS  -  Areal Flood Advisory Areal Flood Advisory        NORTHEAST SUFFOLK  -  Special Weather Statement Special Weather Statement        NORTHWEST SUFFOLK  -  Special Weather Statement Special Weather Statement        SOUTHEAST SUFFOLK  -  Special Weather Statement Special Weather Statement        SOUTHWEST SUFFOLK  -  Special Weather Statement Special Weather Statement      

Active alerts

Northern Queens
  Details for Northern Queens Areal Flood Advisory
Southern Queens
  Details for Southern Queens Areal Flood Advisory
Northern Nassau
  Details for Northern Nassau Areal Flood Advisory  +1 additional alert
Southern Nassau
  Details for Southern Nassau Areal Flood Advisory  +1 additional alert
Northwest Suffolk
  Details for Northwest Suffolk Special Weather Statement
Southwest Suffolk
  Details for Southwest Suffolk Special Weather Statement
Northeast Suffolk
  Details for Northeast Suffolk Special Weather Statement
Southeast Suffolk
  Details for Southeast Suffolk Special Weather Statement


WXM80 ListenWXM80 Stop

You find our weather info also at:

UK Metoffice

WeatherCloud

Weather Underground

Northeastern Weather Network

AWEKAS

Citizen Weather Observer Program (CWOP)

HAMweather, WeatherForYou, PWS Weather


Weather Underground History page Text

Daily Summary for February 7, 2018 Units:  English    Metric   Both
« Previous Day
Next Day »
Daily Weekly Monthly Yearly Custom
  High: Low: Average:
Temperature: TemperatureF °F 26.8 °F 34.1 °F
Dew Point: DewpointF °F 22.6 °F 30.8 °F
Humidity: Humidity % 73 % 88 %
Wind Speed: WindSpeedMPH mph 0.0 mph 5.4 mph
Wind Gust: WindSpeedGustMPH mph - -
Wind:- - SE
Pressure: PressureIn in 29.59 in -
Precipitation: 0.62 in    
Historical Graphs
 
 
Tabular Data for February 7, 2018
Time Temperature Dew Point Pressure Wind Wind Speed Wind Gust Humidity Rainfall Rate (Hourly)
TemperatureF °F DewpointF °F PressureIn in Calm     Humidity % HourlyPrecipIn in
00:02 26.8 °F 23.7 °F 30.25 in Calm     88 % 0.00 in
00:07 26.8 °F 23.7 °F 30.25 in NE 2.6 mph 8.1 mph 88 % 0.00 in
00:12 27.5 °F 24.4 °F 30.25 in ENE 5.1 mph 10.4 mph 88 % 0.00 in
00:17 28.4 °F 25.0 °F 30.25 in ENE 2.9 mph 5.8 mph 87 % 0.00 in
00:22 29.0 °F 25.1 °F 30.26 in ENE 4.4 mph 8.1 mph 85 % 0.00 in
00:27 29.4 °F 25.2 °F 30.26 in ENE 3.4 mph 8.1 mph 84 % 0.00 in
00:32 29.6 °F 25.1 °F 30.26 in ENE 2.9 mph 7.0 mph 83 % 0.00 in
00:37 29.8 °F 25.0 °F 30.26 in ENE 4.3 mph 7.0 mph 82 % 0.00 in
00:42 30.1 °F 25.3 °F 30.26 in ENE 3.5 mph 5.8 mph 82 % 0.00 in
00:48 30.3 °F 24.9 °F 30.26 in ENE 5.3 mph 10.4 mph 80 % 0.00 in
00:53 30.5 °F 25.1 °F 30.26 in ENE 5.0 mph 8.1 mph 80 % 0.00 in
00:58 30.6 °F 24.9 °F 30.26 in ENE 6.3 mph 9.2 mph 79 % 0.00 in
01:03 30.6 °F 24.9 °F 30.26 in NE 6.6 mph 10.0 mph 79 % 0.00 in
01:08 30.6 °F 24.9 °F 30.27 in ENE 4.4 mph 6.9 mph 79 % 0.00 in
01:13 30.6 °F 24.9 °F 30.26 in ENE 8.6 mph 11.5 mph 79 % 0.00 in
01:18 30.6 °F 24.6 °F 30.26 in East 6.0 mph 10.4 mph 78 % 0.00 in
01:23 30.6 °F 24.6 °F 30.26 in ENE 7.8 mph 11.5 mph 78 % 0.00 in
01:28 30.6 °F 24.2 °F 30.26 in ENE 6.3 mph 10.4 mph 77 % 0.00 in
01:33 30.4 °F 24.1 °F 30.26 in East 6.1 mph 11.5 mph 77 % 0.00 in
01:38 30.4 °F 24.4 °F 30.26 in ENE 6.8 mph 9.2 mph 78 % 0.00 in
01:43 30.3 °F 24.3 °F 30.26 in East 6.9 mph 11.5 mph 78 % 0.00 in
01:48 30.1 °F 23.4 °F 30.26 in NE 8.3 mph 11.5 mph 76 % 0.00 in
01:53 30.1 °F 23.8 °F 30.26 in ENE 6.4 mph 8.1 mph 77 % 0.00 in
01:58 30.0 °F 23.7 °F 30.25 in ENE 7.4 mph 10.4 mph 77 % 0.00 in
02:03 30.0 °F 23.4 °F 30.26 in ENE 9.7 mph 11.5 mph 76 % 0.00 in
02:08 30.0 °F 23.4 °F 30.26 in ENE 5.8 mph 9.2 mph 76 % 0.00 in
02:13 29.9 °F 23.3 °F 30.25 in ENE 8.5 mph 11.5 mph 76 % 0.00 in
02:18 29.9 °F 22.9 °F 30.25 in East 8.1 mph 13.8 mph 75 % 0.00 in
02:23 29.9 °F 22.6 °F 30.25 in East 7.5 mph 10.4 mph 74 % 0.00 in
02:28 29.9 °F 22.6 °F 30.25 in ENE 6.4 mph 9.2 mph 74 % 0.00 in
02:33 29.9 °F 22.9 °F 30.25 in East 8.9 mph 10.4 mph 75 % 0.00 in
02:39 30.0 °F 23.0 °F 30.25 in East 8.3 mph 11.5 mph 75 % 0.00 in
02:44 30.0 °F 23.0 °F 30.25 in ENE 9.0 mph 10.0 mph 75 % 0.00 in
02:49 30.0 °F 23.0 °F 30.25 in East 6.9 mph 10.4 mph 75 % 0.00 in
02:54 30.1 °F 23.1 °F 30.25 in ENE 5.3 mph 9.2 mph 75 % 0.00 in
02:59 30.1 °F 23.4 °F 30.25 in East 7.7 mph 10.4 mph 76 % 0.00 in
03:04 30.1 °F 22.8 °F 30.25 in ENE 8.5 mph 11.5 mph 74 % 0.00 in
03:09 30.2 °F 22.9 °F 30.25 in East 6.6 mph 12.0 mph 74 % 0.00 in
03:14 30.3 °F 23.0 °F 30.24 in ENE 7.9 mph 10.4 mph 74 % 0.00 in
03:19 30.3 °F 23.3 °F 30.24 in ENE 9.0 mph 15.0 mph 75 % 0.00 in
03:24 30.3 °F 23.0 °F 30.24 in ENE 7.7 mph 12.7 mph 74 % 0.00 in
03:29 30.4 °F 23.1 °F 30.23 in ENE 9.0 mph 13.8 mph 74 % 0.00 in
03:34 30.4 °F 23.1 °F 30.23 in ENE 9.7 mph 13.8 mph 74 % 0.00 in
03:39 30.5 °F 23.2 °F 30.23 in ENE 8.1 mph 11.5 mph 74 % 0.00 in
03:44 30.5 °F 23.2 °F 30.24 in East 8.3 mph 13.8 mph 74 % 0.00 in
03:49 30.5 °F 22.9 °F 30.25 in ENE 8.2 mph 11.5 mph 73 % 0.00 in
03:54 30.6 °F 23.0 °F 30.25 in East 6.7 mph 10.4 mph 73 % 0.00 in
03:59 30.6 °F 23.3 °F 30.24 in East 6.9 mph 10.4 mph 74 % 0.00 in
04:04 30.6 °F 23.3 °F 30.24 in ENE 7.2 mph 11.0 mph 74 % 0.00 in
04:09 30.6 °F 23.6 °F 30.24 in ENE 7.4 mph 9.2 mph 75 % 0.00 in
04:14 30.6 °F 23.3 °F 30.24 in ENE 10.1 mph 13.8 mph 74 % 0.00 in
04:19 30.6 °F 23.3 °F 30.24 in ENE 7.7 mph 10.4 mph 74 % 0.00 in
04:25 30.6 °F 23.6 °F 30.25 in ENE 7.7 mph 9.2 mph 75 % 0.00 in
04:30 30.6 °F 23.3 °F 30.24 in ENE 7.5 mph 10.4 mph 74 % 0.00 in
04:35 30.6 °F 23.6 °F 30.24 in East 8.0 mph 12.0 mph 75 % 0.00 in
04:40 30.6 °F 23.6 °F 30.24 in East 9.0 mph 10.4 mph 75 % 0.00 in
04:45 30.6 °F 23.6 °F 30.24 in ENE 6.7 mph 9.2 mph 75 % 0.00 in
04:50 30.6 °F 23.6 °F 30.23 in East 7.8 mph 9.2 mph 75 % 0.00 in
04:55 30.5 °F 23.5 °F 30.22 in ENE 8.6 mph 11.5 mph 75 % 0.00 in
05:00 30.5 °F 23.2 °F 30.22 in East 10.0 mph 12.7 mph 74 % 0.00 in
05:05 30.5 °F 23.2 °F 30.22 in East 8.1 mph 11.5 mph 74 % 0.00 in
05:10 30.5 °F 23.2 °F 30.23 in East 7.3 mph 9.0 mph 74 % 0.00 in
05:15 30.5 °F 23.2 °F 30.23 in East 7.3 mph 8.1 mph 74 % 0.00 in
05:20 30.5 °F 23.5 °F 30.24 in East 4.8 mph 6.9 mph 75 % 0.00 in
05:25 30.4 °F 23.1 °F 30.23 in East 6.6 mph 8.0 mph 74 % 0.00 in
05:30 30.3 °F 23.3 °F 30.24 in East 7.4 mph 8.1 mph 75 % 0.00 in
05:35 30.3 °F 23.0 °F 30.24 in East 7.6 mph 9.2 mph 74 % 0.00 in
05:40 30.3 °F 23.3 °F 30.24 in East 6.0 mph 8.1 mph 75 % 0.00 in
05:45 30.2 °F 23.5 °F 30.21 in East 7.0 mph 9.2 mph 76 % 0.00 in
05:51 30.2 °F 23.5 °F 30.22 in East 6.0 mph 9.0 mph 76 % 0.00 in
05:56 30.1 °F 23.4 °F 30.23 in East 6.0 mph 10.0 mph 76 % 0.00 in
06:01 30.1 °F 23.4 °F 30.22 in East 7.3 mph 9.2 mph 76 % 0.00 in
06:06 30.1 °F 23.4 °F 30.22 in East 8.0 mph 12.0 mph 76 % 0.00 in
06:11 30.1 °F 23.4 °F 30.22 in East 7.0 mph 8.0 mph 76 % 0.00 in
06:16 30.1 °F 23.4 °F 30.22 in East 8.0 mph 10.0 mph 76 % 0.00 in
06:21 30.1 °F 23.8 °F 30.20 in East 7.0 mph 10.0 mph 77 % 0.00 in
06:26 30.2 °F 23.9 °F 30.20 in East 8.0 mph 12.0 mph 77 % 0.00 in
06:31 30.3 °F 23.9 °F 30.20 in East 7.0 mph 13.0 mph 77 % 0.00 in
06:36 30.3 °F 24.0 °F 30.20 in East 9.1 mph 13.8 mph 77 % 0.00 in
06:41 30.4 °F 24.0 °F 30.19 in East 8.0 mph 13.0 mph 77 % 0.00 in
06:46 30.4 °F 24.4 °F 30.18 in East 9.0 mph 14.0 mph 78 % 0.00 in
06:51 30.5 °F 24.5 °F 30.18 in East 7.0 mph 13.0 mph 78 % 0.00 in
06:56 30.6 °F 24.5 °F 30.19 in East 10.0 mph 14.0 mph 78 % 0.00 in
07:01 30.6 °F 24.2 °F 30.18 in East 9.8 mph 12.7 mph 77 % 0.00 in
07:06 30.6 °F 24.2 °F 30.18 in East 9.0 mph 14.0 mph 77 % 0.00 in
07:11 30.7 °F 24.7 °F 30.18 in East 7.0 mph 10.0 mph 78 % 0.00 in
07:16 30.7 °F 24.7 °F 30.18 in East 9.0 mph 14.0 mph 78 % 0.00 in
07:21 30.8 °F 24.4 °F 30.18 in East 7.1 mph 11.5 mph 77 % 0.00 in
07:26 30.9 °F 24.5 °F 30.17 in East 9.0 mph 14.0 mph 77 % 0.00 in
07:31 31.0 °F 24.6 °F 30.16 in East 9.0 mph 13.0 mph 77 % 0.00 in
07:36 31.0 °F 24.6 °F 30.16 in East 10.0 mph 14.0 mph 77 % 0.00 in
07:41 31.0 °F 24.6 °F 30.16 in East 9.0 mph 15.0 mph 77 % 0.00 in
07:46 31.1 °F 25.0 °F 30.16 in East 7.0 mph 12.0 mph 78 % 0.00 in
07:51 31.1 °F 25.0 °F 30.16 in East 8.0 mph 13.0 mph 78 % 0.00 in
07:56 31.1 °F 25.0 °F 30.16 in East 9.0 mph 13.0 mph 78 % 0.00 in
08:01 31.1 °F 24.7 °F 30.16 in East 8.7 mph 11.5 mph 77 % 0.00 in
08:06 31.2 °F 24.8 °F 30.15 in East 7.0 mph 13.0 mph 77 % 0.00 in
08:11 31.1 °F 24.7 °F 30.15 in ENE 8.0 mph 11.5 mph 77 % 0.00 in
08:16 31.2 °F 24.8 °F 30.14 in East 8.8 mph 11.0 mph 77 % 0.00 in
08:21 31.2 °F 25.1 °F 30.14 in East 7.0 mph 9.0 mph 78 % 0.00 in
08:26 31.2 °F 25.1 °F 30.15 in East 7.0 mph 12.0 mph 78 % 0.00 in
08:31 31.2 °F 25.1 °F 30.14 in East 7.5 mph 9.2 mph 78 % 0.00 in
08:36 31.2 °F 25.1 °F 30.14 in East 7.0 mph 10.0 mph 78 % 0.00 in
08:41 31.3 °F 25.5 °F 30.13 in East 7.0 mph 10.0 mph 79 % 0.00 in
08:46 31.3 °F 25.5 °F 30.13 in East 7.0 mph 10.0 mph 79 % 0.00 in
08:51 31.4 °F 25.6 °F 30.13 in East 6.0 mph 9.0 mph 79 % 0.00 in
08:56 31.4 °F 25.6 °F 30.13 in East 7.0 mph 9.0 mph 79 % 0.00 in
09:01 31.4 °F 25.9 °F 30.13 in East 6.3 mph 8.1 mph 80 % 0.00 in
09:06 31.5 °F 26.0 °F 30.13 in East 7.0 mph 9.0 mph 80 % 0.00 in
09:11 31.5 °F 26.3 °F 30.12 in East 6.0 mph 10.0 mph 81 % 0.00 in
09:16 31.4 °F 26.5 °F 30.12 in ENE 6.6 mph 8.1 mph 82 % 0.00 in
09:21 31.2 °F 26.7 °F 30.12 in East 5.0 mph 12.0 mph 83 % 0.00 in
09:26 31.1 °F 26.8 °F 30.12 in East 4.7 mph 6.0 mph 84 % 0.00 in
09:31 31.0 °F 27.0 °F 30.11 in East 5.0 mph 7.0 mph 85 % 0.00 in
09:36 30.8 °F 27.1 °F 30.11 in East 6.0 mph 8.0 mph 86 % 0.00 in
09:41 30.7 °F 27.3 °F 30.11 in East 5.0 mph 7.0 mph 87 % 0.00 in
09:46 30.5 °F 27.1 °F 30.11 in East 5.0 mph 7.0 mph 87 % 0.00 in
09:51 30.5 °F 27.4 °F 30.10 in ENE 4.4 mph 6.9 mph 88 % 0.00 in
09:56 30.5 °F 27.6 °F 30.09 in East 3.0 mph 7.0 mph 89 % 0.00 in
10:01 30.6 °F 27.7 °F 30.09 in East 5.0 mph 5.8 mph 89 % 0.00 in
10:06 30.6 °F 28.0 °F 30.09 in ENE 3.0 mph 5.0 mph 90 % 0.00 in
10:11 30.7 °F 28.1 °F 30.09 in ENE 3.4 mph 4.6 mph 90 % 0.00 in
10:16 30.8 °F 28.2 °F 30.08 in ENE 4.7 mph 6.0 mph 90 % 0.00 in
10:21 30.8 °F 28.2 °F 30.07 in ENE 4.0 mph 6.9 mph 90 % 0.00 in
10:26 30.9 °F 28.6 °F 30.07 in East 3.5 mph 6.9 mph 91 % 0.00 in
10:31 31.0 °F 28.7 °F 30.07 in East 3.7 mph 6.0 mph 91 % 0.00 in
10:36 31.1 °F 28.8 °F 30.05 in East 4.2 mph 7.0 mph 91 % 0.00 in
10:41 31.1 °F 28.8 °F 30.04 in ENE 4.9 mph 6.9 mph 91 % 0.00 in
10:46 31.2 °F 29.1 °F 30.04 in ENE 5.2 mph 9.0 mph 92 % 0.00 in
10:51 31.3 °F 29.2 °F 30.04 in East 5.7 mph 10.4 mph 92 % 0.00 in
10:56 31.4 °F 29.3 °F 30.03 in ENE 4.3 mph 5.8 mph 92 % 0.00 in
11:01 31.5 °F 29.4 °F 30.03 in East 3.9 mph 5.0 mph 92 % 0.00 in
11:06 31.5 °F 29.4 °F 30.03 in East 3.7 mph 6.9 mph 92 % 0.00 in
11:12 31.6 °F 29.5 °F 30.01 in East 5.8 mph 6.9 mph 92 % 0.00 in
11:17 31.7 °F 29.9 °F 30.02 in ENE 5.2 mph 8.1 mph 93 % 0.00 in
11:22 31.7 °F 29.9 °F 30.02 in ENE 5.9 mph 8.1 mph 93 % 0.00 in
11:27 31.8 °F 30.0 °F 30.02 in ENE 4.5 mph 6.9 mph 93 % 0.00 in
11:32 31.9 °F 30.1 °F 30.01 in ENE 4.5 mph 7.0 mph 93 % 0.00 in
11:37 32.1 °F 30.3 °F 30.00 in ENE 4.4 mph 8.1 mph 93 % 0.00 in
11:42 32.2 °F 30.4 °F 29.99 in East 4.8 mph 6.9 mph 93 % 0.00 in
11:47 32.3 °F 30.5 °F 29.99 in East 5.5 mph 6.9 mph 93 % 0.00 in
11:52 32.3 °F 30.5 °F 29.98 in East 6.2 mph 8.1 mph 93 % 0.00 in
11:57 32.4 °F 30.6 °F 29.97 in East 5.5 mph 6.0 mph 93 % 0.00 in
12:02 32.5 °F 30.7 °F 29.97 in East 3.5 mph 4.6 mph 93 % 0.00 in
12:07 32.6 °F 31.1 °F 29.96 in ENE 4.9 mph 6.9 mph 94 % 0.00 in
12:12 32.6 °F 31.1 °F 29.95 in East 5.2 mph 6.9 mph 94 % 0.00 in
12:17 32.7 °F 31.2 °F 29.95 in East 5.6 mph 7.0 mph 94 % 0.00 in
12:22 32.8 °F 31.3 °F 29.94 in ENE 4.9 mph 8.1 mph 94 % 0.00 in
12:27 32.8 °F 31.3 °F 29.93 in East 5.9 mph 6.9 mph 94 % 0.00 in
12:32 32.8 °F 31.3 °F 29.92 in East 5.1 mph 8.1 mph 94 % 0.00 in
12:37 32.9 °F 31.4 °F 29.91 in East 6.7 mph 8.1 mph 94 % 0.01 in
12:42 32.9 °F 31.4 °F 29.92 in East 3.3 mph 5.8 mph 94 % 0.01 in
12:47 32.9 °F 31.4 °F 29.91 in ENE 3.5 mph 6.9 mph 94 % 0.02 in
12:49 32.9 °F 31.4 °F 29.92 in ENE 3.8 mph 5.0 mph 94 % 0.02 in
12:54 33.0 °F 31.5 °F 29.91 in ENE 4.6 mph 8.1 mph 94 % 0.02 in
12:59 33.0 °F 31.5 °F 29.90 in East 5.1 mph 8.1 mph 94 % 0.03 in
13:04 33.0 °F 31.5 °F 29.90 in East 5.5 mph 9.2 mph 94 % 0.04 in
13:09 32.9 °F 31.6 °F 29.89 in ENE 4.9 mph 8.1 mph 95 % 0.05 in
13:14 32.8 °F 31.5 °F 29.89 in ENE 4.9 mph 8.1 mph 95 % 0.05 in
13:19 32.8 °F 31.5 °F 29.89 in East 1.9 mph 4.6 mph 95 % 0.06 in
13:24 32.7 °F 31.4 °F 29.89 in ENE 5.7 mph 8.1 mph 95 % 0.06 in
13:29 32.7 °F 31.4 °F 29.88 in ENE 3.3 mph 4.0 mph 95 % 0.07 in
13:34 32.7 °F 31.4 °F 29.87 in ENE 3.7 mph 5.8 mph 95 % 0.07 in
13:39 32.6 °F 31.3 °F 29.86 in ENE 5.0 mph 6.9 mph 95 % 0.07 in
13:44 32.5 °F 31.2 °F 29.86 in ENE 4.3 mph 8.1 mph 95 % 0.07 in
13:49 32.5 °F 31.2 °F 29.85 in ENE 6.3 mph 9.2 mph 95 % 0.07 in
13:54 32.4 °F 31.1 °F 29.85 in NE 3.4 mph 5.8 mph 95 % 0.06 in
13:59 32.4 °F 31.1 °F 29.85 in ENE 5.2 mph 7.0 mph 95 % 0.06 in
14:04 32.4 °F 31.1 °F 29.84 in ENE 3.4 mph 4.6 mph 95 % 0.06 in
14:09 32.4 °F 31.1 °F 29.84 in ENE 4.1 mph 5.8 mph 95 % 0.06 in
14:15 32.4 °F 31.4 °F 29.83 in ENE 3.6 mph 8.1 mph 96 % 0.07 in
14:20 32.4 °F 31.4 °F 29.81 in ENE 4.2 mph 7.0 mph 96 % 0.07 in
14:25 32.4 °F 31.1 °F 29.80 in ENE 5.6 mph 8.1 mph 95 % 0.08 in
14:30 32.4 °F 31.1 °F 29.79 in ENE 4.4 mph 6.9 mph 95 % 0.08 in
14:35 32.4 °F 31.4 °F 29.78 in ENE 3.5 mph 4.6 mph 96 % 0.08 in
14:40 32.5 °F 31.5 °F 29.77 in ENE 3.8 mph 8.0 mph 96 % 0.09 in
14:45 32.4 °F 31.4 °F 29.77 in ENE 3.9 mph 5.0 mph 96 % 0.10 in
14:50 32.4 °F 31.4 °F 29.76 in ENE 2.5 mph 3.5 mph 96 % 0.09 in
14:55 32.5 °F 31.5 °F 29.76 in Calm     96 % 0.10 in
15:00 32.5 °F 31.5 °F 29.77 in Calm     96 % 0.11 in
15:05 32.5 °F 31.5 °F 29.75 in Calm     96 % 0.11 in
15:10 32.5 °F 31.5 °F 29.75 in Calm     96 % 0.11 in
15:15 32.5 °F 31.5 °F 29.74 in Calm     96 % 0.11 in
15:20 32.5 °F 31.5 °F 29.74 in Calm     96 % 0.10 in
15:25 32.6 °F 31.6 °F 29.73 in Calm     96 % 0.10 in
15:30 32.6 °F 31.6 °F 29.73 in Calm     96 % 0.09 in
15:36 32.7 °F 31.7 °F 29.73 in Calm     96 % 0.00 in
15:41 32.7 °F 31.7 °F 29.72 in Calm     96 % 0.09 in
15:46 32.8 °F 31.8 °F 29.72 in Calm     96 % 0.09 in
15:51 32.8 °F 31.8 °F 29.70 in Calm     96 % 0.10 in
15:56 32.9 °F 31.9 °F 29.70 in Calm     96 % 0.09 in
16:01 32.9 °F 31.9 °F 29.69 in Calm     96 % 0.09 in
16:06 32.9 °F 31.9 °F 29.68 in Calm     96 % 0.08 in
16:11 33.0 °F 32.0 °F 29.67 in Calm     96 % 0.07 in
16:16 33.0 °F 32.0 °F 29.66 in Calm     96 % 0.07 in
16:21 33.1 °F 32.1 °F 29.66 in Calm     96 % 0.06 in
16:26 33.2 °F 32.2 °F 29.67 in Calm     96 % 0.06 in
16:31 33.2 °F 32.4 °F 29.66 in Calm     97 % 0.06 in
16:37 33.3 °F 32.3 °F 29.65 in Calm     96 % 0.05 in
16:42 33.4 °F 32.4 °F 29.64 in Calm     96 % 0.05 in
16:47 33.4 °F 32.4 °F 29.63 in Calm     96 % 0.04 in
16:52 33.9 °F 33.1 °F 29.63 in Calm     97 % 0.03 in
16:57 34.7 °F 33.9 °F 29.62 in Calm     97 % 0.03 in
17:02 35.8 °F 35.0 °F 29.62 in South 4.3 mph 10.0 mph 97 % 0.02 in
17:07 37.8 °F 37.0 °F 29.61 in SSW 6.0 mph 11.5 mph 97 % 0.03 in
17:12 39.5 °F 39.0 °F 29.60 in SSW 6.1 mph 10.4 mph 98 % 0.02 in
17:17 41.6 °F 41.1 °F 29.60 in SSW 3.5 mph 11.0 mph 98 % 0.02 in
17:22 43.3 °F 42.8 °F 29.61 in SSW 4.7 mph 11.5 mph 98 % 0.03 in
17:27 45.1 °F 44.6 °F 29.60 in South 7.8 mph 11.5 mph 98 % 0.03 in
17:32 46.3 °F 45.8 °F 29.60 in SSW 6.7 mph 12.7 mph 98 % 0.03 in
17:37 47.2 °F 46.7 °F 29.59 in South 9.8 mph 18.0 mph 98 % 0.03 in
17:42 48.3 °F 47.8 °F 29.59 in South 6.2 mph 11.5 mph 98 % 0.03 in
17:47 48.8 °F 48.3 °F 29.60 in SSW 6.9 mph 11.5 mph 98 % 0.03 in
17:52 49.2 °F 48.7 °F 29.60 in SSW 10.7 mph 21.9 mph 98 % 0.04 in
17:57 49.6 °F 49.1 °F 29.59 in SSW 9.0 mph 18.4 mph 98 % 0.05 in
18:02 49.8 °F 49.3 °F 29.59 in SSW 4.6 mph 9.2 mph 98 % 0.06 in
18:07 49.9 °F 49.4 °F 29.61 in WSW 8.4 mph 17.3 mph 98 % 0.06 in
18:13 49.8 °F 49.3 °F 29.62 in WSW 7.8 mph 16.1 mph 98 % 0.09 in
18:18 49.5 °F 49.0 °F 29.63 in West 6.8 mph 12.7 mph 98 % 0.13 in
18:23 48.8 °F 48.3 °F 29.63 in West 4.3 mph 9.2 mph 98 % 0.15 in
18:28 47.9 °F 47.4 °F 29.64 in West 3.7 mph 6.0 mph 98 % 0.17 in
18:33 47.3 °F 46.8 °F 29.63 in SSW 3.5 mph 6.9 mph 98 % 0.18 in
18:38 46.5 °F 45.7 °F 29.63 in West 0.2 mph 1.2 mph 97 % 0.18 in
18:43 45.6 °F 44.8 °F 29.63 in WSW 4.9 mph 10.4 mph 97 % 0.18 in
18:48 45.0 °F 44.2 °F 29.64 in SW 2.8 mph 6.0 mph 97 % 0.19 in
18:53 44.6 °F 43.8 °F 29.64 in West 5.8 mph 11.5 mph 97 % 0.18 in
18:58 44.2 °F 43.4 °F 29.64 in SW 3.5 mph 6.9 mph 97 % 0.18 in
19:03 44.1 °F 43.3 °F 29.64 in WNW 6.4 mph 17.3 mph 97 % 0.18 in
19:08 44.1 °F 43.6 °F 29.64 in WSW 8.0 mph 13.8 mph 98 % 0.17 in
19:13 44.3 °F 43.8 °F 29.64 in WSW 8.1 mph 17.3 mph 98 % 0.14 in
19:18 44.4 °F 43.9 °F 29.65 in SW 8.8 mph 16.1 mph 98 % 0.12 in
19:23 44.3 °F 43.8 °F 29.65 in WSW 6.3 mph 11.5 mph 98 % 0.09 in
19:28 44.2 °F 43.7 °F 29.65 in WSW 7.2 mph 11.5 mph 98 % 0.07 in
19:33 44.0 °F 43.5 °F 29.64 in WSW 9.3 mph 12.7 mph 98 % 0.06 in
19:38 43.8 °F 43.3 °F 29.64 in WSW 5.0 mph 16.1 mph 98 % 0.06 in
19:43 43.6 °F 43.1 °F 29.64 in West 3.9 mph 12.7 mph 98 % 0.05 in
19:48 43.4 °F 42.9 °F 29.65 in West 6.7 mph 11.5 mph 98 % 0.04 in
19:54 43.2 °F 42.7 °F 29.65 in SW 4.6 mph 11.5 mph 98 % 0.04 in
19:59 43.1 °F 42.3 °F 29.66 in West 3.3 mph 11.5 mph 97 % 0.03 in
20:04 42.9 °F 42.1 °F 29.66 in WNW 4.4 mph 9.2 mph 97 % 0.03 in
20:09 42.7 °F 41.9 °F 29.66 in WSW 3.2 mph 12.7 mph 97 % 0.02 in
20:14 42.5 °F 41.7 °F 29.66 in West 6.4 mph 11.5 mph 97 % 0.02 in
20:19 42.3 °F 41.5 °F 29.67 in WSW 7.3 mph 12.7 mph 97 % 0.02 in
20:24 42.0 °F 41.2 °F 29.67 in WNW 6.8 mph 13.8 mph 97 % 0.02 in
20:29 41.8 °F 41.0 °F 29.68 in West 5.2 mph 12.7 mph 97 % 0.03 in
20:34 41.5 °F 40.7 °F 29.67 in WNW 4.1 mph 9.2 mph 97 % 0.03 in
20:39 41.3 °F 40.5 °F 29.68 in West 6.5 mph 11.5 mph 97 % 0.04 in
20:44 41.1 °F 40.3 °F 29.68 in West 3.5 mph 18.4 mph 97 % 0.04 in
20:49 40.9 °F 40.1 °F 29.68 in WNW 1.9 mph 3.5 mph 97 % 0.04 in
20:54 40.6 °F 39.8 °F 29.68 in WNW 5.9 mph 10.4 mph 97 % 0.04 in
20:59 40.4 °F 39.6 °F 29.68 in WSW 2.3 mph 9.2 mph 97 % 0.04 in
21:04 40.2 °F 39.4 °F 29.69 in West 6.2 mph 9.0 mph 97 % 0.03 in
21:09 39.9 °F 39.1 °F 29.69 in West 6.3 mph 10.4 mph 97 % 0.03 in
21:15 39.7 °F 38.7 °F 29.69 in WSW 6.1 mph 10.4 mph 96 % 0.03 in
21:20 39.5 °F 38.5 °F 29.69 in WSW 7.1 mph 10.4 mph 96 % 0.02 in
21:25 39.3 °F 38.3 °F 29.69 in WSW 6.9 mph 11.5 mph 96 % 0.02 in
21:30 39.1 °F 38.1 °F 29.70 in West 5.7 mph 10.4 mph 96 % 0.02 in
21:35 38.9 °F 37.9 °F 29.71 in WSW 5.1 mph 10.4 mph 96 % 0.02 in
21:40 38.8 °F 37.8 °F 29.71 in WNW 7.4 mph 11.5 mph 96 % 0.01 in
21:45 38.7 °F 37.7 °F 29.71 in WSW 1.4 mph 4.6 mph 96 % 0.01 in
21:50 38.5 °F 37.5 °F 29.72 in WSW 1.3 mph 7.0 mph 96 % 0.01 in
21:55 38.3 °F 37.3 °F 29.72 in WNW 3.1 mph 6.9 mph 96 % 0.01 in
22:00 38.1 °F 36.8 °F 29.72 in WNW 5.9 mph 10.4 mph 95 % 0.01 in
22:05 38.0 °F 36.7 °F 29.73 in WNW 2.5 mph 10.4 mph 95 % 0.01 in
22:10 37.8 °F 36.5 °F 29.73 in WNW 4.4 mph 10.0 mph 95 % 0.01 in
22:15 37.7 °F 36.4 °F 29.73 in WNW 3.8 mph 10.4 mph 95 % 0.01 in
22:20 37.6 °F 36.3 °F 29.73 in West 11.0 mph 11.5 mph 95 % 0.01 in
22:25 37.4 °F 36.1 °F 29.74 in NW 8.1 mph 11.5 mph 95 % 0.01 in
22:30 37.3 °F 35.7 °F 29.74 in WNW 5.1 mph 6.9 mph 94 % 0.00 in
22:35 37.2 °F 35.6 °F 29.75 in NW 3.9 mph 9.2 mph 94 % 0.00 in
22:40 37.1 °F 35.5 °F 29.75 in NW 4.5 mph 8.1 mph 94 % 0.00 in
22:46 37.0 °F 35.4 °F 29.76 in NW 3.5 mph 8.1 mph 94 % 0.00 in
22:51 37.0 °F 35.4 °F 29.76 in WNW 2.0 mph 8.0 mph 94 % 0.00 in
22:56 36.9 °F 35.3 °F 29.77 in NNW 5.0 mph 10.0 mph 94 % 0.00 in
23:01 36.8 °F 35.2 °F 29.76 in NW 5.1 mph 5.1 mph 94 % 0.00 in
23:06 36.6 °F 35.0 °F 29.77 in North 3.0 mph 5.0 mph 94 % 0.00 in
23:11 36.5 °F 34.7 °F 29.78 in North 6.5 mph 11.5 mph 93 % 0.00 in
23:16 36.3 °F 34.5 °F 29.77 in North 5.9 mph 10.4 mph 93 % 0.00 in
23:21 36.2 °F 34.4 °F 29.79 in NNW 5.2 mph 13.0 mph 93 % 0.00 in
23:26 36.1 °F 34.3 °F 29.79 in NNW 6.7 mph 10.4 mph 93 % 0.00 in
23:31 35.9 °F 34.1 °F 29.78 in NNE 6.0 mph 11.5 mph 93 % 0.00 in
23:36 35.8 °F 33.7 °F 29.78 in North 4.1 mph 10.4 mph 92 % 0.00 in
23:41 35.6 °F 33.5 °F 29.79 in WNW 4.7 mph 8.1 mph 92 % 0.00 in
23:46 35.5 °F 33.4 °F 29.80 in NNW 6.9 mph 13.8 mph 92 % 0.00 in
23:51 35.4 °F 33.3 °F 29.80 in NNW 6.3 mph 13.8 mph 92 % 0.00 in
23:56 35.2 °F 32.8 °F 29.81 in NNW 5.6 mph 11.5 mph 91 % 0.00 in
Crab Meadow Weather
Compliments of Weather Underground - 3 mb

Script developed by  Jim McMurry - jmcmurry@mwt.net Adapted for the template by  Wim van der Kuil - Leuven-Template.eu

Weather Terms: Relative Humidity - The ratio of the amount of water vapor actually present in the air to the greatest amount possible at the same temperature.